DW0156 Weather Reports


time (UTC)temp
C
wind
direction
speed
KPH
gust
KPH
rain 1hr
cm
rain 24hr
cm
rain mn
cm
humidity
%
barometer
mb
20260505023929 16 263 4.8 9.7 0.00 0.33 0.28 71 1023.9
20260505023411 16 263 4.8 9.7 0.00 0.33 0.28 71 1023.9
20260505022910 16 263 3.2 9.7 0.00 0.33 0.28 71 1023.9
20260505022416 16 263 1.6 9.7 0.00 0.33 0.28 71 1023.8
20260505021920 16 263 3.2 9.7 0.00 0.33 0.28 69 1023.8
20260505021415 16 263 3.2 9.7 0.00 0.33 0.28 69 1023.8
20260505020904 16 263 3.2 9.7 0.00 0.33 0.28 68 1023.8
20260505015738 16 263 4.8 9.7 0.00 0.36 0.28 69 1023.9
20260505015242 16 263 3.2 9.7 0.00 0.36 0.28 69 1023.9
20260505014736 16 263 1.6 8.0 0.00 0.36 0.28 70 1023.9
20260505013616 15 263 1.6 4.8 0.00 0.36 0.28 72 1023.9
20260505013104 15 263 1.6 6.4 0.00 0.36 0.28 73 1023.9
20260505012559 15 263 1.6 6.4 0.00 0.36 0.28 74 1023.8
20260505012043 15 263 1.6 6.4 0.00 0.36 0.28 75 1023.8
20260505011527 15 263 1.6 4.8 0.00 0.36 0.28 76 1023.8
20260505011012 15 263 0.0 3.2 0.00 0.36 0.28 77 1023.7
20260505010516 15 263 0.0 3.2 0.00 0.36 0.28 78 1023.7
20260505010026 15 263 0.0 6.4 0.00 0.36 0.28 78 1023.7
20260505005534 15 263 0.0 4.8 0.00 0.36 0.28 80 1023.5
20260505005044 15 263 0.0 4.8 0.00 0.36 0.28 81 1023.5
20260505004542 15 263 0.0 3.2 0.00 0.36 0.28 82 1023.5
20260505004038 15 263 0.0 3.2 0.00 0.36 0.28 83 1023.3
20260505003533 15 263 0.0 3.2 0.00 0.36 0.28 84 1023.3
20260505003023 15 263 0.0 1.6 0.00 0.36 0.28 86 1023.3
20260505002503 15 263 0.0 6.4 0.00 0.36 0.28 88 1023.3
20260505002012 15 263 0.0 6.4 0.00 0.36 0.28 88 1023.3
20260505001458 14 263 0.0 3.2 0.00 0.36 0.28 89 1023.3
20260505000947 14 263 0.0 0.0 0.00 0.36 0.28 90 1023.2
20260505000445 13 263 1.6 4.8 0.00 0.36 0.28 90 1023.2
20260504235926 13 263 0.0 4.8 0.00 0.36 0.28 90 1023.2
20260504235425 14 263 0.0 4.8 0.00 0.36 0.28 91 1023.2
20260504234918 13 263 0.0 0.0 0.00 0.36 0.28 92 1023.2
20260504234359 13 263 0.0 0.0 0.00 0.36 0.28 92 1023.1
20260504233249 13 263 0.0 3.2 0.00 0.36 0.28 92 1023.1
20260504231440 13 263 0.0 0.0 0.00 0.36 0.28 93 1022.9
20260504230946 13 263 0.0 0.0 0.00 0.36 0.28 93 1022.9
20260504230453 13 263 0.0 3.2 0.00 0.36 0.28 92 1022.9
20260504225958 13 263 0.0 0.0 0.00 0.36 0.28 93 1022.9
20260504225506 13 263 0.0 1.6 0.00 0.36 0.28 93 1022.8
20260504224955 13 263 0.0 1.6 0.00 0.36 0.28 92 1022.8
20260504223813 12 263 0.0 6.4 0.00 0.36 0.28 92 1022.7
20260504223255 12 263 0.0 6.4 0.00 0.36 0.28 92 1022.7
20260504222736 12 263 0.0 1.6 0.00 0.36 0.28 93 1022.5
20260504222219 12 263 0.0 1.6 0.00 0.36 0.28 93 1022.5
20260504221659 12 263 0.0 1.6 0.00 0.36 0.28 93 1022.5
20260504221155 12 263 0.0 0.0 0.00 0.36 0.28 92 1022.3
20260504220701 12 263 0.0 3.2 0.00 0.36 0.28 92 1022.3
20260504220157 12 263 0.0 1.6 0.00 0.36 0.28 92 1022.3
20260504215658 12 263 0.0 0.0 0.00 0.36 0.28 92 1022.2
20260504215207 12 263 0.0 3.2 0.00 0.36 0.28 92 1022.2
20260504214647 12 263 0.0 0.0 0.00 0.36 0.28 92 1022.2
20260504213531 12 263 0.0 0.0 0.00 0.36 0.28 92 1022.2
20260504213023 12 263 0.0 0.0 0.00 0.36 0.28 92 1022.2
20260504212525 12 263 0.0 0.0 0.00 0.36 0.28 92 1021.9
20260504211350 12 263 0.0 0.0 0.00 0.36 0.28 92 1021.7
20260504210845 12 263 0.0 1.6 0.00 0.36 0.28 92 1021.7
20260504210353 12 263 1.6 3.2 0.00 0.36 0.28 92 1021.7
20260504205841 12 263 1.6 6.4 0.00 0.36 0.28 92 1021.7
20260504204714 12 263 0.0 3.2 0.00 0.36 0.25 92 1021.7
20260504204202 12 263 0.0 0.0 0.00 0.36 0.25 92 1021.6
20260504203645 12 263 0.0 0.0 0.00 0.36 0.25 92 1021.6
20260504203125 12 263 0.0 0.0 0.00 0.36 0.25 92 1021.6
20260504202622 12 263 0.0 0.0 0.00 0.36 0.25 92 1021.3
20260504200240 12 263 0.0 0.0 0.00 0.36 0.25 92 1021.2
20260504195732 12 263 0.0 0.0 0.00 0.36 0.25 92 1021.1
20260504194556 12 263 0.0 0.0 0.00 0.33 0.23 92 1021.1
20260504193424 12 263 0.0 0.0 0.00 0.33 0.23 92 1021.0
20260504192400 12 263 0.0 0.0 0.00 0.33 0.23 92 1020.9
20260504191859 12 263 0.0 0.0 0.00 0.33 0.23 92 1020.9
20260504190715 12 263 0.0 0.0 0.00 0.33 0.23 92 1020.7
20260504190210 12 263 0.0 0.0 0.00 0.33 0.23 92 1020.7
20260504185650 12 263 0.0 0.0 0.00 0.33 0.23 92 1020.6
20260504185144 12 263 0.0 0.0 0.00 0.33 0.23 92 1020.6
20260504184640 12 263 0.0 0.0 0.00 0.33 0.23 92 1020.6
20260504184149 12 263 0.0 0.0 0.00 0.33 0.23 92 1020.6
20260504183650 12 263 0.0 0.0 0.00 0.33 0.23 91 1020.6
20260504183134 12 263 0.0 0.0 0.00 0.33 0.23 91 1020.6
20260504182616 12 263 0.0 0.0 0.00 0.33 0.23 91 1020.6
20260504182102 12 263 0.0 0.0 0.00 0.33 0.23 91 1020.6
20260504181541 12 263 0.0 4.8 0.00 0.33 0.23 91 1020.6
20260504181043 12 263 1.6 4.8 0.00 0.33 0.23 91 1020.5
20260504180526 12 263 1.6 4.8 0.08 0.33 0.23 92 1020.5
20260504180026 12 263 0.0 4.8 0.10 0.33 0.23 92 1020.5
20260504175508 12 263 0.0 1.6 0.23 0.33 0.23 92 1020.6
20260504175004 12 263 0.0 3.2 0.28 0.30 0.20 92 1020.6
20260504173816 12 263 0.0 0.0 0.00 0.23 0.13 91 1020.6
20260504173303 12 263 0.0 0.0 0.00 0.23 0.13 91 1020.6
20260504172755 12 263 0.0 0.0 0.00 0.23 0.13 91 1020.6
20260504172259 12 263 0.0 3.2 0.00 0.23 0.13 91 1020.6
20260504171807 12 263 0.0 3.2 0.00 0.23 0.13 91 1020.6
20260504170639 12 263 0.0 0.0 0.00 0.23 0.13 91 1020.6
20260504170125 12 263 0.0 0.0 0.00 0.23 0.13 91 1020.6
20260504150650 12 263 0.0 1.6 0.00 0.15 0.00 90 1020.5
20260504150145 12 263 0.0 1.6 0.00 0.15 0.00 90 1020.5
20260504141006 12 263 0.0 3.2 0.00 0.38 0.38 89 1020.2
20260504130402 13 263 0.0 0.0 0.00 0.46 0.38 88 1020.1
20260504110304 14 263 0.0 0.0 0.00 0.46 0.36 84 1019.0
20260504100517 15 263 0.0 1.6 0.00 0.46 0.33 79 1018.3
20260504082002 16 263 9.7 22.5 0.00 0.56 0.33 70 1016.9
20260504080842 16 263 8.0 22.5 0.00 0.64 0.33 69 1016.6
20260504080332 16 263 8.0 22.5 0.00 0.64 0.33 69 1016.6
20260504050721 18 263 11.3 22.5 0.00 0.79 0.33 63 1014.8
20260504050222 18 263 11.3 29.0 0.00 0.79 0.33 62 1014.8
20260504045709 18 263 9.7 29.0 0.00 0.79 0.33 62 1014.8
20260504045215 18 263 12.9 29.0 0.00 0.79 0.33 64 1014.8
20260504044723 18 263 12.9 29.0 0.00 0.79 0.33 63 1014.8
20260504044219 18 263 11.3 24.1 0.00 0.79 0.33 64 1014.7
20260504043724 18 263 12.9 27.4 0.00 0.79 0.33 67 1014.7
20260504043226 18 263 12.9 27.4 0.00 0.79 0.33 66 1014.7
20260504042722 18 263 12.9 27.4 0.00 0.79 0.33 65 1014.6
20260504042213 18 263 12.9 27.4 0.00 0.79 0.33 64 1014.6
20260504041703 18 263 11.3 25.7 0.00 0.79 0.33 66 1014.6
20260504041200 18 263 12.9 25.7 0.00 0.79 0.33 66 1014.6
20260504040646 18 263 12.9 25.7 0.00 0.79 0.33 66 1014.6
20260504040141 18 263 12.9 25.7 0.00 0.79 0.33 65 1014.6
20260504035633 18 263 11.3 25.7 0.00 0.79 0.33 66 1014.7
20260504035124 18 263 11.3 25.7 0.00 0.79 0.33 66 1014.7
20260504034629 18 263 9.7 27.4 0.00 0.79 0.33 66 1014.7
20260504034138 18 263 9.7 27.4 0.00 0.79 0.33 65 1014.7
20260504033638 18 263 11.3 27.4 0.00 0.79 0.33 66 1014.7
20260504033131 18 263 11.3 27.4 0.00 0.79 0.33 67 1014.7
20260504032626 18 263 9.7 25.7 0.00 0.79 0.33 69 1014.8
20260504032133 17 263 11.3 25.7 0.00 0.79 0.33 69 1014.8
20260504031633 17 263 11.3 20.9 0.00 0.79 0.33 68 1014.8
20260504031124 17 263 9.7 24.1 0.00 0.79 0.33 67 1014.8
20260504030616 17 263 9.7 24.1 0.00 0.79 0.33 69 1014.8
20260504030124 17 263 12.9 29.0 0.00 0.79 0.33 69 1014.8
20260504025609 17 263 14.5 29.0 0.00 0.79 0.33 68 1014.8